Meteo Giornale » Osservazioni meteo Stati Uniti (USA) » Statesville

ore: 14:15 - Osservazioni Meteo Statesville
Lat. 35° 45' N Lon. 80° 57' W Alt. 294 metri s.l.m.

molto_nuvoloso

32 °C

Molto Nuvoloso

Temp. 24 Ore

21 °C

34 °C

Nord

0 Km/h

Dew point 21 °C

Umidità 52 %

Visibilità  10 Km

Il sole sorge alle ore 06:56

Il sole tramonta alle ore 19:51

Data e Ora Cielo e Fenomeni T °C DP °C Um. % Pres. hPa Vis. km Vento km/h
Oggi h: 14:15 molto_nuvoloso Molto Nuvoloso 32 21 52 1020 10 N 0
Oggi h: 13:55 molto_nuvoloso Molto Nuvoloso 34 21 46 1020 10 N 5.5
Oggi h: 13:35 molto_nuvoloso Molto Nuvoloso 34 21 46 1020 10 O/NO 7.4
Oggi h: 13:15 nuvoloso Nuvoloso 34 21 46 1020 10 N 0
Oggi h: 12:55 sereno Sereno 33 21 49 1020 10 N 5.5
Oggi h: 12:35 sereno Sereno 33 21 49 1020 10 O/NO 7.4
Oggi h: 12:15 sereno Sereno 32 22 55 1021 10 N 0
Oggi h: 11:55 sereno Sereno 32 22 55 1021 10 N 0
Oggi h: 11:35 sereno Sereno 31 22 58 1021 10 N 5.5
Oggi h: 11:15 sereno Sereno 31 21 55 1021 10 N 5.5
Oggi h: 10:55 sereno Sereno 31 22 58 1021 10 N 0
Oggi h: 10:35 sereno Sereno 30 22 62 1021 10 N 0
Oggi h: 10:15 sereno Sereno 29 23 70 1021 10 N 0
Oggi h: 09:55 sereno Sereno 28 23 74 1021 10 N 0
Oggi h: 09:35 sereno Sereno 27 23 78 1021 10 N 0
Oggi h: 09:15 sereno Sereno 26 23 83 1021 10 N 0
Oggi h: 08:55 sereno Sereno 25 23 88 1021 10 N 0
Oggi h: 08:35 sereno Sereno 24 23 94 1021 10 N 0
Oggi h: 08:15 sereno Sereno 23 22 94 1021 10 N 0
Oggi h: 07:55 sereno Sereno 22 22 100 1021 10 N 0
Oggi h: 07:35 sereno Sereno 22 21 94 1020 10 N 0
Oggi h: 07:15 sereno Sereno 22 21 94 1020 10 N 0
Oggi h: 06:55 sereno Sereno 21 21 100 1020 11 N 0
Oggi h: 06:35 sereno Sereno 21 21 100 1020 10 N 0
Oggi h: 06:15 sereno Sereno 21 21 100 1020 11 N 0
Oggi h: 05:55 sereno Sereno 21 21 100 1020 11 N 0
Oggi h: 05:35 sereno Sereno 22 22 100 1020 11 N 0
Oggi h: 05:15 sereno Sereno 22 22 100 1020 11 N 0
Oggi h: 04:55 sereno Sereno 22 21 94 1020 10 N 0
Oggi h: 04:35 sereno Sereno 21 21 100 1020 10 N 0
Oggi h: 04:15 foschia Foschia 22 22 100 1020 5 N 0
Oggi h: 03:55 sereno Sereno 22 22 100 1020 10 N 0
Oggi h: 03:35 sereno Sereno 22 22 100 1020 10 N 0
Oggi h: 03:15 sereno Sereno 22 22 100 1020 10 N 0
Oggi h: 02:55 sereno Sereno 22 22 100 1020 10 N 0
Oggi h: 02:35 sereno Sereno 22 22 100 1020 10 N 0
Oggi h: 02:15 sereno Sereno 22 22 100 1020 10 N 0
Oggi h: 01:55 sereno Sereno 23 23 100 1020 10 N 0
Oggi h: 01:35 sereno Sereno 23 23 100 1020 10 N 0
Oggi h: 01:15 sereno Sereno 23 22 94 1021 10 N 0
Oggi h: 00:55 sereno Sereno 23 23 100 1021 10 N 0
Oggi h: 00:35 sereno Sereno 23 23 100 1020 10 N 0
Oggi h: 00:15 sereno Sereno 23 23 100 1021 10 N 0
Ieri h: 23:55 sereno Sereno 24 23 94 1021 10 N 0
Ieri h: 23:35 sereno Sereno 24 23 94 1020 10 N 0
Ieri h: 23:15 sereno Sereno 24 23 94 1020 10 N 5.5
Ieri h: 22:55 sereno Sereno 24 23 94 1020 10 N 5.5
Ieri h: 22:35 sereno Sereno 24 23 94 1020 10 N 0
Ieri h: 22:15 sereno Sereno 24 23 94 1020 10 N 0
Ieri h: 21:55 sereno Sereno 25 24 94 1020 10 N 0
Ieri h: 21:35 sereno Sereno 25 23 88 1020 10 N 0
Ieri h: 21:15 sereno Sereno 26 23 83 1020 10 N 0
Ieri h: 20:55 sereno Sereno 26 24 88 1020 10 N 0
Ieri h: 20:35 sereno Sereno 26 24 88 1019 10 N 0
Ieri h: 20:15 sereno Sereno 27 24 83 1019 10 N 0
Ieri h: 19:55 sereno Sereno 28 23 74 1019 10 N 0
Ieri h: 19:35 sereno Sereno 28 23 74 1019 10 N 0
Ieri h: 19:15 sereno Sereno 30 23 66 1019 10 N 0
Ieri h: 18:55 sereno Sereno 30 21 58 1019 10 N 0
Ieri h: 18:35 sereno Sereno 30 22 62 1019 10 N 0
Ieri h: 18:15 sereno Sereno 30 22 62 1020 10 N 0
Ieri h: 17:55 sereno Sereno 30 22 62 1020 10 N 5.5
Ieri h: 17:35 sereno Sereno 30 22 62 1020 10 N 0
Ieri h: 17:15 sereno Sereno 30 22 62 1020 10 NO 7.4
Ieri h: 16:55 sereno Sereno 30 22 62 1020 10 O/NO 14.8
Ieri h: 16:35 nuvoloso Nuvoloso 32 20 49 1020 10 N/NO 7.4
Ieri h: 16:15 nuvoloso Nuvoloso 32 20 49 1020 10 N 5.5
Ieri h: 15:55 nuvoloso Nuvoloso 33 19 43 1020 10 N 0
Ieri h: 15:35 sereno Sereno 33 19 43 1020 10 N 0
Ieri h: 15:15 nuvoloso Nuvoloso 33 19 43 1020 10 N 0
Ieri h: 14:55 nuvoloso Nuvoloso 33 19 43 1020 10 NE 9.3
Ieri h: 14:35 sereno Sereno 33 18 41 1021 10 N 0